Regional Weather Roundup
Issued by NWS Glasgow, MT

Current Version | Previous Version | Text Only | Print | Product List | Glossary On
Versions: 1 2 3 4 5 6 7 8 9 10 11 12 13 14 15 16 17 18 19 20 21 22 23 24 25 26 27 28 29 30 31 32 33 34 35 36 37 38 39 40 41 42 43 44 45 46 47 48 49 50
000
ASUS45 KGGW 271315
RWRGGW
HOURLY REGIONAL WEATHER ROUNDUP FOR NORTHEAST MONTANA
NATIONAL WEATHER SERVICE GLASGOW MONTANA
700 AM MDT MON MAR 27 2017

NOTE: "FAIR" INDICATES FEW OR NO CLOUDS BELOW 12,000 FEET WITH NO
SIGNIFICANT WEATHER AND/OR OBSTRUCTIONS TO VISISBILITY.

NORTHEAST MONTANA


CITY           SKY/WX    TMP DP  RH WIND       PRES   REMARKS
GLASGOW        CLOUDY    37  26  64 N6        29.85R
PLENTYWOOD       N/A     31  26  82 N3          N/A
WOLF POINT     MOCLDY    34  29  82 E5        29.87S
JORDAN           N/A     33  28  81 CALM      29.82S
WINNETT          N/A     39  32  76 SW3         N/A
SIDNEY         CLOUDY    33  28  81 CALM      29.88R
GLENDIVE       CLOUDY    35  27  72 CALM      29.87R
MALTA            N/A     36  29  75 E3          N/A

FORT PECK REPORTS


CITY           SKY/WX    TMP DP  RH WIND       PRES   REMARKS
FORT PECK        N/A     32  29  88 NW7         N/A
THE PINES        N/A     41  25  53 CALM        N/A

SOUTHEAST MONTANA


CITY           SKY/WX    TMP DP  RH WIND       PRES   REMARKS
BILLINGS       CLOUDY    43  32  65 SW8       29.81S
MILES CITY     MOCLDY    38  31  76 N5        29.83S
BAKER          MOCLDY    34  31  88 E6        29.87R
LIVINGSTON     CLOUDY    38  30  73 NW10      29.82S

CENTRAL MONTANA


CITY           SKY/WX    TMP DP  RH WIND       PRES   REMARKS
HAVRE          CLOUDY    37  27  67 E8        29.81S
LEWISTOWN      CLOUDY    35  26  69 SE3       29.82R
GREAT FALLS    CLOUDY    37  30  75 SW10      29.80R
CUT BANK       MOCLDY    36  29  75 SW3       29.79R
HELENA         CLOUDY    41  33  73 S3        29.83R
BUTTE          CLOUDY    35  29  78 CALM      29.83S
BOZEMAN        CLOUDY    36  33  89 CALM      29.84R

WESTERN MONTANA


CITY           SKY/WX    TMP DP  RH WIND       PRES   REMARKS
MISSOULA       LGT RAIN  38  38 100 CALM      29.86R
KALISPELL      NOT AVBL

NORTH DAKOTA


CITY           SKY/WX    TMP DP  RH WIND       PRES   REMARKS
WILLISTON      CLOUDY    30  26  85 NE3       29.89R
DICKINSON      PTCLDY    32  30  92 S9        29.86S
MINOT          MOCLDY    34  31  88 NW3       29.89R
BISMARCK       CLEAR     32  30  92 CALM      29.93R

SOUTHERN SASKATCHEWAN


CITY           SKY/WX    TMP DP  RH WIND       PRES   REMARKS
REGINA         FOG       28  28 100 N3        29.92S VSB 1/4
MOOSE JAW      FOG       28  28 100 NE5       29.94R VSB 1/4
ESTEVAN        MOCLDY    25  25 100 NE3       29.91R FOG
SWIFT CURRENT  MOCLDY    25  25 100 SE7       29.85S




USA.gov is the U.S. government's official web portal to all federal, state and local government web resources and services.